TimeEDT,TemperatureF,Dew PointF,Humidity,Sea Level PressureIn,VisibilityMPH,Wind Direction,Wind SpeedMPH,Gust SpeedMPH,PrecipitationIn,Events,Conditions,WindDirDegrees,DateUTC
12:16 AM,71.6,69.8,94,29.96,10.0,Calm,Calm,-,N/A,,Scattered Clouds,0,2013-07-08 04:16:00
12:54 AM,71.1,70.0,96,29.96,10.0,Calm,Calm,-,0.00,Rain,Light Rain,0,2013-07-08 04:54:00
1:54 AM,70.0,70.0,100,29.95,8.0,Calm,Calm,-,0.00,,Mostly Cloudy,0,2013-07-08 05:54:00
2:01 AM,69.8,69.8,100,29.96,9.0,Calm,Calm,-,N/A,,Scattered Clouds,0,2013-07-08 06:01:00
2:26 AM,71.6,69.8,94,29.96,9.0,Calm,Calm,-,N/A,,Mostly Cloudy,0,2013-07-08 06:26:00
2:54 AM,71.1,69.1,93,29.94,10.0,Calm,Calm,-,N/A,,Overcast,0,2013-07-08 06:54:00
3:54 AM,70.0,69.1,97,29.95,2.0,Calm,Calm,-,N/A,,Overcast,0,2013-07-08 07:54:00
4:08 AM,69.8,69.8,100,29.96,4.0,Calm,Calm,-,N/A,,Overcast,0,2013-07-08 08:08:00
4:54 AM,70.0,69.1,97,29.95,8.0,Calm,Calm,-,0.01,,Overcast,0,2013-07-08 08:54:00
5:24 AM,69.8,69.8,100,29.97,1.5,Calm,Calm,-,N/A,,Overcast,0,2013-07-08 09:24:00
5:43 AM,69.8,69.8,100,29.97,2.5,Calm,Calm,-,N/A,,Overcast,0,2013-07-08 09:43:00
5:54 AM,69.1,69.1,100,29.96,3.0,Calm,Calm,-,N/A,,Overcast,0,2013-07-08 09:54:00
6:11 AM,69.8,69.8,100,29.97,8.0,Calm,Calm,-,N/A,,Overcast,0,2013-07-08 10:11:00
6:49 AM,69.8,69.8,100,29.97,10.0,Calm,Calm,-,N/A,,Overcast,0,2013-07-08 10:49:00
6:54 AM,70.0,69.1,97,29.97,10.0,Calm,Calm,-,N/A,,Overcast,0,2013-07-08 10:54:00
7:54 AM,71.1,69.1,93,29.99,10.0,Calm,Calm,-,N/A,,Overcast,0,2013-07-08 11:54:00
8:02 AM,71.6,69.8,94,29.99,10.0,Calm,Calm,-,N/A,,Overcast,0,2013-07-08 12:02:00
8:54 AM,73.0,70.0,90,29.98,10.0,Calm,Calm,-,N/A,,Overcast,0,2013-07-08 12:54:00
9:23 AM,75.2,69.8,83,29.99,10.0,Calm,Calm,-,N/A,,Mostly Cloudy,0,2013-07-08 13:23:00
9:47 AM,75.2,69.8,83,29.99,10.0,Calm,Calm,-,N/A,,Mostly Cloudy,0,2013-07-08 13:47:00
9:54 AM,77.0,70.0,79,29.99,10.0,Calm,Calm,-,N/A,,Scattered Clouds,0,2013-07-08 13:54:00
10:54 AM,80.1,70.0,71,29.98,10.0,Calm,Calm,-,N/A,,Overcast,0,2013-07-08 14:54:00
11:54 AM,77.0,69.1,76,29.99,10.0,SSE,4.6,-,0.00,Rain,Light Rain,150,2013-07-08 15:54:00
12:04 PM,77.0,69.8,78,29.99,10.0,SE,4.6,-,0.00,Rain,Light Rain,140,2013-07-08 16:04:00
12:54 PM,79.0,66.9,66,29.99,10.0,WSW,8.1,-,0.00,,Overcast,250,2013-07-08 16:54:00
1:54 PM,81.0,66.9,62,29.99,10.0,West,10.4,-,N/A,,Scattered Clouds,270,2013-07-08 17:54:00
2:54 PM,80.1,66.9,64,29.98,10.0,Calm,Calm,-,N/A,,Clear,0,2013-07-08 18:54:00
3:54 PM,82.0,66.9,60,29.99,10.0,West,10.4,-,N/A,,Overcast,280,2013-07-08 19:54:00
4:54 PM,79.0,66.9,66,29.99,10.0,NNW,4.6,-,N/A,,Overcast,330,2013-07-08 20:54:00
5:54 PM,79.0,66.9,66,29.99,10.0,Calm,Calm,-,N/A,,Overcast,0,2013-07-08 21:54:00
6:54 PM,75.9,69.1,79,30.00,10.0,ENE,6.9,-,N/A,,Overcast,70,2013-07-08 22:54:00
7:54 PM,73.9,68.0,82,30.02,10.0,East,3.5,-,N/A,,Overcast,80,2013-07-08 23:54:00
8:51 PM,73.4,69.8,88,30.04,2.5,Calm,Calm,-,0.08,Rain,Rain,0,2013-07-09 00:51:00
8:54 PM,72.0,69.1,91,30.04,4.0,Calm,Calm,-,0.09,Rain,Light Rain,0,2013-07-09 00:54:00
9:54 PM,72.0,70.0,93,30.06,10.0,Calm,Calm,-,0.00,Rain,Light Rain,0,2013-07-09 01:54:00
10:35 PM,71.6,69.8,94,30.06,7.0,NE,3.5,-,N/A,,Mostly Cloudy,50,2013-07-09 02:35:00
10:54 PM,71.1,70.0,96,30.06,8.0,Calm,Calm,-,N/A,,Mostly Cloudy,0,2013-07-09 02:54:00
11:03 PM,71.6,69.8,94,30.06,9.0,Calm,Calm,-,N/A,,Mostly Cloudy,0,2013-07-09 03:03:00
11:54 PM,71.1,70.0,96,30.06,10.0,Calm,Calm,-,N/A,,Overcast,0,2013-07-09 03:54:00